Regional Weather Roundup
Issued by NWS Charleston, SC

Current Version | Previous Version | Text Only | Print | Product List | Glossary Off
Versions: 1 2 3 4 5 6 7 8 9 10 11 12 13 14 15 16 17 18 19 20 21 22 23 24 25 26 27 28 29 30 31 32 33 34 35 36 37 38 39 40 41 42 43 44 45 46 47 48 49 50
000 ASUS42 KCHS 242113 RWRCHS REGIONAL WEATHER ROUNDUP NATIONAL WEATHER SERVICE CHARLESTON SC 500 PM EDT TUE MAY 24 2016 NOTE: "FAIR" INDICATES FEW OR NO CLOUDS BELOW 12,000 FEET WITH NO SIGNIFICANT WEATHER AND/OR OBSTRUCTIONS TO VISIBILITY. NOT ALL STATIONS ARE QUALITY CONTROLLED. USE DATA WITH CAUTION... ESPECIALLY DEWPOINT OBSERVATIONS. SCZ027-030-031-034>040-042>050-242200- ...SOUTHEAST SOUTH CAROLINA... CITY SKY/WX TMP DP RH WIND PRES REMARKS N CHARLESTON MOSUNNY 82 59 45 S10 30.12F WATERFRONT PRK N/A 75 62 64 SE12 30.11F MOUNT PLEASANT FAIR 79 59 50 S10 30.13F JOHNS ISLAND FAIR 79 63 57 SE8 30.13F PINOPOLIS N/A 84 55 37 VRB3 30.05F MONCKS CORNER FAIR 81 46 30 CALM 30.11F SUMMERVILLE MOCLDY 82 59 44 SW3 30.12F BEAUFORT MCAS MOSUNNY 82 64 54 S7 30.13S BEAUFORT ARPT FAIR 79 61 53 S7 30.13S HILTON HEAD IS SUNNY 81 63 54 S12 30.15S WALTERBORO MOCLDY 84 54 34 CALM 30.11F ALLENDALE FAIR 86 54 32 SW6 30.10S ...SOUTHERN MIDLANDS AND PEE DEE... CITY SKY/WX TMP DP RH WIND PRES REMARKS GEORGETOWN FAIR 79 52 38 S10G16 30.14S KINGSTREE FAIR 82 46 28 S5 30.11F ORANGEBURG MOSUNNY 83 54 36 SW5 30.11S BARNWELL FAIR 88 55 33 CALM 30.11S AIKEN MOCLDY 82 48 30 SW8 30.13F MANNING FAIR 81 54 39 SE3 30.11F COLUMBIA MOSUNNY 86 52 30 W8 30.09S SUMTER MOSUNNY 83 52 34 S7 30.08F FLORENCE MOSUNNY 83 53 35 SW10G16 30.11F MYRTLE BEACH MOSUNNY 79 54 41 S18 30.16S N MYRTLE BEACH SUNNY 77 55 46 S14 30.13F $$ GAZ063-065-086>088-099>101-113>116-118-119-134>141-150-242200- ...SOUTHEAST GEORGIA... CITY SKY/WX TMP DP RH WIND PRES REMARKS SAVANNAH ARPT MOSUNNY 82 64 54 SE15 30.12F HUNTER AAF PTSUNNY 79 67 66 S13 30.11S FORT STEWART MOSUNNY 82 65 57 SE8 30.09F STATESBORO PTSUNNY 87 56 34 CALM 30.11S SYLVANIA PTCLDY 86 53 31 S3 30.12S CLAXTON FAIR 86 55 33 SE3 30.11S ...CSRA...CENTRAL AND FAR SOUTHEAST GEORGIA... CITY SKY/WX TMP DP RH WIND PRES REMARKS THOMSON MOSUNNY 87 55 33 W7 30.15S AUGUSTA-BUSH MOSUNNY 85 55 35 E5 30.09F AUGUSTA-DANIEL SUNNY 86 52 30 MISG 30.11F SWAINSBORO FAIR 86 50 28 W7 30.11F VIDALIA PTSUNNY 86 52 30 SW5 30.12S EASTMAN MOCLDY 87 47 24 SW3 30.13F HAZLEHURST FAIR 89 48 24 CALM 30.10F ALMA PTSUNNY 87 50 27 SE7 30.11F WAYCROSS PTSUNNY 84 54 35 E3 30.11S JESUP MOCLDY 81 61 50 SE7 30.11F BAXLEY FAIR 88 48 25 CALM 30.11F BRUNSWICK MOSUNNY 86 64 48 E12 30.13F SAINT SIMONS MOSUNNY 80 67 64 SE12 30.13F $$ SCZ027-028-034-036>038-045-046-048>050-GAZ119-141-242200- ...LAKE AND SUPPLEMENTAL COASTAL OBSERVATIONS... STATION/POSITION TIME TEMP WIND PRES WAVE SWELL AIR SEA DIR/SP/G HT/PER HT/PER/DIR (UTC) (F) (DEG/KT/KT) (MB) (FT/S) (FT/S/D) WINYAH BAY NOT AVBL LAKE MURRAY 2000 81 170/ 5/ 7 1019.0F ACE BASIN NERRS NOT AVBL FORT PULASKI 2000 77 76 120/ 7/ 11 1021.1F SAPELO ISLAND 2000 83 130/ 9 1020.0F $$ ANZ835-935-AMZ111-154-330-350-352-354-370-450-454-472-242200- ...C-MAN AND BUOY OBSERVATIONS... STATION/POSITION TIME TEMP WIND PRES WAVE SWELL AIR SEA DIR/SP/G HT/PER HT/PER/DIR (UTC) (F) (DEG/KT/KT) (MB) (FT/S) (FT/S/D) BUOY 41004 NOT AVBL BUOY 41008 2050 76 77 120/ 10/ 14 1020.7F 2/ 8 2/ 80/ 8 FOLLY BEACH CMAN 2100 74 150/ 12/ 13 1020.7F CAPERS NEARSHORE 2008 73 75 150/ 12/ 16 1020.5F FRIPP NEARSHORE 2008 74 76 140/ 10/ 14 1020.2F STATION/POSITION TIME TEMP WIND PRES WAVE SWELL AIR SEA DIR/SP/G HT/PER HT/PER/DIR (UTC) (F) (DEG/KT/KT) (MB) (FT/S) (FT/S/D) 5E ST. MARYS GA 2021 79 N/A 2/ 9 FRYING PAN BUOY 2000 72 76 220/ 12/ 16 1021.1F BUOY 41025 2050 73 79 230/ 16/ 19 1018.7F 3/ 9 3/ 70/ 9 CAPE LOOKOUT NC 2100 73 220/ 10/ 15 1019.0F BUOY 41002 2050 73 78 340/ 6/ 8 1020.5F 5/ 8 5/ 30/ 8 BUOY 41010 2020 78 79 70/ 10/ 12 1020.9F ST AUGUSTINE FL 2100 78 82 120/ 11/ 13 1021.2F $$

USA.gov is the U.S. government's official web portal to all federal, state and local government web resources and services.